EW9790 Weather Reports


time (UTC)temp
C
wind
direction
speed
KPH
gust
KPH
rain 1hr
cm
rain 24hr
cm
rain mn
cm
humidity
%
barometer
mb
20260906113539 22 181 0.0 1.6 0.00 0.00 0.00 100 1011.7
20260906113308 22 181 0.0 1.6 0.00 0.00 0.00 100 1011.7
20260906112543 22 171 0.0 1.6 0.00 0.00 0.00 100 1011.7
20260906112539 22 172 0.0 1.6 0.00 0.00 0.00 100 1011.8
20260906111539 22 176 0.0 0.0 0.00 0.00 0.00 99 1011.7
20260906111038 22 176 0.0 1.6 0.00 0.00 0.00 99 1011.7
20260906110539 22 176 0.0 1.6 0.00 0.00 0.00 99 1011.6
20260906110037 22 176 0.0 1.6 0.00 0.00 0.00 99 1011.5
20260906105537 22 101 0.0 0.0 0.00 0.00 0.00 99 1011.3
20260906105043 22 101 0.0 0.0 0.00 0.00 0.00 99 1011.2
20260906105037 22 101 0.0 0.0 0.00 0.00 0.00 99 1011.2
20260906104037 22 101 0.0 0.0 0.00 0.00 0.00 99 1011.2
20260906103538 22 101 0.0 0.0 0.00 0.00 0.00 99 1011.2
20260906103037 22 101 0.0 0.0 0.00 0.00 0.00 99 1011.1
20260906102535 22 101 0.0 0.0 0.00 0.00 0.00 99 1010.9
20260906102035 22 101 0.0 0.0 0.00 0.00 0.00 99 1010.9
20260906101536 22 101 0.0 0.0 0.00 0.00 0.00 99 1010.8
20260906101035 22 101 0.0 0.0 0.00 0.00 0.00 99 1010.8
20260906100806 23 101 0.0 0.0 0.00 0.00 0.00 99 1010.8
20260906100305 23 101 0.0 1.6 0.00 0.00 0.00 99 1010.7
20260906095532 23 101 0.0 1.6 0.00 0.00 0.00 99 1010.8
20260906095032 23 101 0.0 0.0 0.00 0.00 0.00 99 1010.8
20260906094532 23 101 0.0 3.2 0.00 0.00 0.00 99 1010.8
20260906094032 23 101 0.0 3.2 0.00 0.00 0.00 99 1010.8
20260906093529 23 95 0.0 3.2 0.00 0.00 0.00 99 1011.0
20260906093303 23 229 0.0 0.0 0.00 0.00 0.00 99 1010.9
20260906092529 23 229 0.0 0.0 0.00 0.00 0.00 99 1010.8
20260906092029 23 229 0.0 1.6 0.00 0.00 0.00 99 1010.9
20260906091530 23 229 0.0 1.6 0.00 0.00 0.00 99 1010.9
20260906091259 23 229 0.0 1.6 0.00 0.00 0.00 99 1010.9
20260906090525 23 229 0.0 1.6 0.00 0.00 0.00 99 1011.0
20260906090257 23 229 0.0 1.6 0.00 0.00 0.00 99 1011.0
20260906085523 23 118 0.0 1.6 0.00 0.00 0.00 99 1011.0
20260906085024 23 202 0.0 1.6 0.00 0.00 0.00 99 1011.0
20260906084523 23 131 0.0 1.6 0.00 0.00 0.00 99 1011.0
20260906084023 23 131 0.0 0.0 0.00 0.00 0.00 99 1010.9
20260906083521 23 131 0.0 0.0 0.00 0.00 0.00 99 1010.8
20260906083021 23 131 0.0 0.0 0.00 0.00 0.00 99 1010.7
20260906082523 23 131 0.0 0.0 0.00 0.00 0.00 99 1010.6
20260906082018 23 131 0.0 0.0 0.00 0.00 0.00 99 1010.7
20260906081750 23 131 0.0 0.0 0.00 0.00 0.00 99 1010.6
20260906081018 23 131 0.0 0.0 0.00 0.00 0.00 99 1010.5
20260906080519 23 131 0.0 6.4 0.00 0.00 0.00 99 1010.5
20260906080017 23 131 0.0 6.4 0.00 0.00 0.00 99 1010.5
20260906075515 23 261 0.0 0.0 0.00 0.00 0.00 99 1010.3
20260906075015 23 261 0.0 0.0 0.00 0.00 0.00 99 1010.3
20260906074517 23 261 0.0 0.0 0.00 0.00 0.00 98 1010.3
20260906074015 23 261 0.0 0.0 0.00 0.00 0.00 98 1010.3
20260906073516 23 261 0.0 0.0 0.00 0.00 0.00 98 1010.4
20260906073015 23 261 0.0 0.0 0.00 0.00 0.00 98 1010.4
20260906072513 23 261 0.0 0.0 0.00 0.00 0.00 98 1010.4
20260906072013 23 261 0.0 0.0 0.00 0.00 0.00 98 1010.4
20260906071515 23 261 0.0 0.0 0.00 0.00 0.00 98 1010.4
20260906071014 23 261 0.0 0.0 0.00 0.00 0.00 98 1010.4
20260906070744 23 261 0.0 0.0 0.00 0.00 0.00 98 1010.4
20260906070014 23 261 0.0 0.0 0.00 0.00 0.00 98 1010.3
20260906065514 23 261 0.0 0.0 0.00 0.00 0.00 98 1010.4
20260906065013 23 261 0.0 0.0 0.00 0.00 0.00 98 1010.5
20260906064514 23 261 0.0 0.0 0.00 0.00 0.00 98 1010.6
20260906064245 23 261 0.0 0.0 0.00 0.00 0.00 98 1010.7
20260906063512 23 261 0.0 0.0 0.00 0.00 0.00 98 1010.7
20260906063243 23 261 0.0 0.0 0.00 0.00 0.00 98 1010.7
20260906062512 23 261 0.0 0.0 0.00 0.00 0.00 98 1010.7
20260906062010 23 261 0.0 0.0 0.00 0.00 0.00 98 1010.7
20260906061512 24 261 0.0 0.0 0.00 0.00 0.00 98 1010.8
20260906061012 24 261 0.0 0.0 0.00 0.00 0.00 98 1010.8
20260906060512 24 261 0.0 0.0 0.00 0.00 0.00 98 1010.8
20260906060011 24 261 0.0 0.0 0.00 0.00 0.00 98 1010.9
20260906055511 24 261 0.0 0.0 0.00 0.00 0.00 98 1010.9
20260906055243 24 261 0.0 0.0 0.00 0.00 0.00 98 1011.0
20260906054509 24 261 0.0 0.0 0.00 0.00 0.00 98 1011.0
20260906054009 24 261 0.0 0.0 0.00 0.00 0.00 98 1011.1
20260906053510 24 261 0.0 0.0 0.00 0.00 0.00 98 1011.1
20260906053010 24 261 0.0 0.0 0.00 0.00 0.00 98 1011.2
20260906052509 23 261 0.0 0.0 0.00 0.00 0.00 98 1011.1
20260906052011 23 261 0.0 0.0 0.00 0.00 0.00 98 1011.2
20260906051510 23 261 0.0 0.0 0.00 0.00 0.00 98 1011.1
20260906051007 23 261 0.0 0.0 0.00 0.00 0.00 98 1011.1
20260906050508 23 261 0.0 0.0 0.00 0.00 0.00 98 1011.1
20260906050007 23 261 0.0 0.0 0.00 0.00 0.00 98 1011.1
20260906045507 23 261 0.0 0.0 0.00 0.00 0.00 98 1011.2
20260906045005 23 261 0.0 0.0 0.00 0.00 0.00 98 1011.2
20260906044505 23 261 0.0 0.0 0.00 0.00 0.00 98 1011.2
20260906044005 23 261 0.0 0.0 0.00 0.00 0.00 97 1011.2
20260906043507 23 261 0.0 0.0 0.00 0.00 0.00 97 1011.3
20260906043237 23 261 0.0 0.0 0.00 0.00 0.00 97 1011.3
20260906042503 23 261 0.0 0.0 0.00 0.00 0.00 97 1011.3
20260906042235 23 261 0.0 0.0 0.00 0.00 0.00 97 1011.3
20260906041503 23 261 0.0 0.0 0.00 0.00 0.00 97 1011.2
20260906041003 24 261 0.0 0.0 0.00 0.00 0.00 97 1011.1
20260906040503 24 261 0.0 0.0 0.00 0.00 0.00 97 1011.2
20260906040234 24 261 0.0 0.0 0.00 0.00 0.00 97 1011.2
20260906035732 24 261 0.0 0.0 0.00 0.00 0.00 97 1011.1
20260906035001 24 261 0.0 0.0 0.00 0.00 0.00 96 1011.1
20260906034501 24 261 0.0 1.6 0.00 0.00 0.00 97 1011.1
20260906034236 24 261 0.0 1.6 0.00 0.00 0.00 96 1011.1
20260906033502 24 261 0.0 0.0 0.00 0.00 0.00 96 1011.0
20260906033000 24 261 0.0 0.0 0.00 0.00 0.00 96 1011.0
20260906032459 24 261 0.0 0.0 0.00 0.00 0.00 96 1010.9
20260906031958 24 261 0.0 0.0 0.00 0.00 0.00 96 1010.8
20260906031457 24 261 0.0 0.0 0.00 0.00 0.00 96 1010.7
20260906030958 24 261 0.0 0.0 0.00 0.00 0.00 96 1010.7
20260906030459 24 261 0.0 0.0 0.00 0.00 0.00 96 1010.6
20260906025958 24 261 0.0 0.0 0.00 0.00 0.00 96 1010.5
20260906025457 24 261 0.0 0.0 0.00 0.00 0.00 96 1010.5
20260906024957 24 261 0.0 0.0 0.00 0.00 0.00 96 1010.5
20260906024458 25 261 0.0 0.0 0.00 0.00 0.00 96 1010.5
20260906023958 25 261 0.0 0.0 0.00 0.00 0.00 95 1010.5
20260906023458 25 261 0.0 0.0 0.00 0.00 0.00 95 1010.4
20260906022958 25 261 0.0 0.0 0.00 0.00 0.00 95 1010.5
20260906022455 25 261 0.0 0.0 0.00 0.00 0.00 95 1010.4
20260906021955 25 261 0.0 0.0 0.00 0.00 0.00 95 1010.4
20260906021455 25 261 0.0 0.0 0.00 0.00 0.00 95 1010.5
20260906020955 25 261 0.0 0.0 0.00 0.00 0.00 95 1010.3
20260906020456 25 261 0.0 0.0 0.00 0.00 0.00 94 1010.3
20260906015956 25 261 0.0 0.0 0.00 0.00 0.00 95 1010.2
20260906015726 25 261 0.0 0.0 0.00 0.00 0.00 95 1010.3
20260906014956 25 261 0.0 0.0 0.00 0.00 0.00 94 1010.3
20260906014456 25 261 0.0 0.0 0.00 0.00 0.00 94 1010.2
20260906013955 25 261 0.0 0.0 0.00 0.00 0.00 94 1010.2
20260906013453 25 261 0.0 0.0 0.00 0.00 0.00 94 1010.0
20260906012952 25 261 0.0 0.0 0.00 0.00 0.00 93 1010.0
20260906012454 25 261 0.0 0.0 0.00 0.00 0.00 93 1010.1
20260906011954 26 261 0.0 0.0 0.00 0.00 0.00 93 1010.1
20260906011724 26 261 0.0 0.0 0.00 0.00 0.00 92 1010.1
20260906010954 26 261 0.0 0.0 0.00 0.00 0.00 91 1009.9
20260906010453 26 261 0.0 0.0 0.00 0.00 0.00 92 1009.9
20260906005953 26 261 0.0 0.0 0.00 0.00 0.00 92 1009.8
20260906005453 26 261 0.0 0.0 0.00 0.00 0.00 92 1009.8
20260906004953 26 261 0.0 0.0 0.00 0.00 0.00 91 1009.8
20260906004452 26 261 0.0 0.0 0.00 0.00 0.00 90 1009.7
20260906003951 26 261 0.0 0.0 0.00 0.00 0.00 90 1009.7
20260906003452 27 261 0.0 0.0 0.00 0.00 0.00 90 1009.7
20260906002951 27 261 0.0 0.0 0.00 0.00 0.00 90 1009.7
20260906002450 27 261 0.0 0.0 0.00 0.00 0.00 89 1009.7
20260906002219 27 261 0.0 0.0 0.00 0.00 0.00 89 1009.8
20260906001449 27 261 0.0 0.0 0.00 0.00 0.00 88 1009.8
20260906000950 28 261 0.0 0.0 0.00 0.00 0.00 88 1009.8
20260906000449 28 261 0.0 0.0 0.00 0.00 0.00 88 1009.9
20260905235950 28 261 0.0 0.0 0.00 0.00 0.00 87 1010.0
20260905235450 28 261 0.0 0.0 0.00 0.00 0.00 87 1010.0
20260905234950 28 261 0.0 0.0 0.00 0.00 0.00 86 1010.0
20260905234448 29 261 0.0 0.0 0.00 0.00 0.00 86 1010.0
20260905233948 29 261 0.0 0.0 0.00 0.00 0.00 85 1009.9
20260905233448 30 261 0.0 0.0 0.00 0.00 0.00 82 1010.0
20260905232948 30 261 0.0 0.0 0.00 0.00 0.00 81 1010.0
20260905232449 30 261 0.0 0.0 0.00 0.00 0.00 78 1010.0
20260905231949 31 261 0.0 0.0 0.00 0.00 0.00 77 1009.9
20260905231449 31 261 0.0 0.0 0.00 0.00 0.00 74 1009.9
20260905231218 32 261 0.0 1.6 0.00 0.00 0.00 73 1009.8
20260905230447 33 261 0.0 1.6 0.00 0.00 0.00 71 1009.8
20260905225949 34 261 0.0 1.6 0.00 0.00 0.00 69 1009.8
20260905225446 35 261 0.0 1.6 0.00 0.00 0.00 69 1009.9
20260905224947 35 261 0.0 1.6 0.00 0.00 0.00 69 1009.9
20260905224447 35 261 0.0 1.6 0.00 0.00 0.00 69 1009.9
20260905223947 35 261 0.0 1.6 0.00 0.00 0.00 67 1010.0
20260905223718 36 261 0.0 1.6 0.00 0.00 0.00 65 1009.9
20260905222947 37 261 0.0 1.6 0.00 0.00 0.00 63 1010.0
20260905222448 38 260 0.0 1.6 0.00 0.00 0.00 59 1010.0
20260905221944 38 260 0.0 1.6 0.00 0.00 0.00 60 1010.0
20260905221446 38 260 0.0 1.6 0.00 0.00 0.00 60 1010.0
20260905220946 38 260 0.0 0.0 0.00 0.00 0.00 62 1010.0
20260905220443 38 260 0.0 1.6 0.00 0.00 0.00 59 1010.1
20260905220215 38 260 0.0 1.6 0.00 0.00 0.00 56 1010.1
20260905215444 38 260 0.0 1.6 0.00 0.00 0.00 57 1010.0
20260905214940 38 260 0.0 1.6 0.00 0.00 0.00 57 1010.0
20260905214442 38 260 0.0 4.8 0.00 0.00 0.00 59 1010.1
20260905213940 38 260 0.0 4.8 0.00 0.00 0.00 47 1010.1
20260905213438 38 328 0.0 1.6 0.00 0.00 0.00 56 1010.2
20260905212936 38 328 0.0 3.2 0.00 0.00 0.00 48 1010.3
20260905212442 37 21 0.0 1.6 0.00 0.00 0.00 50 1010.3
20260905212437 37 328 0.0 3.2 0.00 0.00 0.00 49 1010.3
20260905211437 36 22 0.0 3.2 0.00 0.00 0.00 58 1010.3
20260905210937 36 17 1.6 3.2 0.00 0.00 0.00 51 1010.4
20260905210437 36 39 1.6 4.8 0.00 0.00 0.00 51 1010.3
20260905205936 36 86 1.6 4.8 0.00 0.00 0.00 50 1010.3
20260905205436 36 75 1.6 6.4 0.00 0.00 0.00 51 1010.5
20260905204936 36 87 3.2 8.0 0.00 0.00 0.00 54 1010.5
20260905204437 36 73 3.2 8.0 0.00 0.00 0.00 50 1010.5
20260905203936 37 143 1.6 8.0 0.00 0.00 0.00 50 1010.5
20260905203436 37 119 1.6 11.3 0.00 0.00 0.00 51 1010.6
20260905202936 36 239 3.2 11.3 0.00 0.00 0.00 56 1010.6
20260905202437 37 87 1.6 8.0 0.00 0.00 0.00 51 1010.7
20260905202208 37 110 1.6 8.0 0.00 0.00 0.00 55 1010.8
20260905201436 37 58 1.6 8.0 0.00 0.00 0.00 51 1010.8
20260905201209 37 253 0.0 3.2 0.00 0.00 0.00 52 1011.0
20260905200437 36 253 0.0 3.2 0.00 0.00 0.00 52 1011.1
20260905195938 36 56 1.6 3.2 0.00 0.00 0.00 51 1011.2
20260905195438 36 30 1.6 6.4 0.00 0.00 0.00 52 1011.2
20260905194938 36 1 0.0 6.4 0.00 0.00 0.00 52 1011.3
20260905194437 36 200 1.6 6.4 0.00 0.00 0.00 57 1011.4
20260905193934 35 217 1.6 9.7 0.00 0.00 0.00 58 1011.5
20260905193430 35 70 3.2 11.3 0.00 0.00 0.00 54 1011.5
20260905192931 36 43 1.6 11.3 0.00 0.00 0.00 58 1011.6
20260905192428 36 19 1.6 4.8 0.00 0.00 0.00 54 1011.6
20260905191928 37 347 1.6 8.0 0.00 0.00 0.00 53 1011.8
20260905191700 37 14 1.6 8.0 0.00 0.00 0.00 48 1011.8
20260905191157 37 210 1.6 8.0 0.00 0.00 0.00 50 1011.9
20260905190427 37 176 1.6 6.4 0.00 0.00 0.00 49 1011.9
20260905185927 37 246 1.6 6.4 0.00 0.00 0.00 48 1012.0
20260905185426 37 284 1.6 6.4 0.00 0.00 0.00 52 1012.1
20260905184926 37 291 1.6 6.4 0.00 0.00 0.00 50 1012.1
20260905184426 37 285 1.6 3.2 0.00 0.00 0.00 51 1012.2
20260905184157 37 236 1.6 6.4 0.00 0.00 0.00 50 1012.2
20260905183423 37 315 1.6 6.4 0.00 0.00 0.00 49 1012.3
20260905182923 37 241 1.6 4.8 0.00 0.00 0.00 49 1012.3
20260905182421 37 259 0.0 3.2 0.00 0.00 0.00 52 1012.4
20260905181919 37 285 1.6 4.8 0.00 0.00 0.00 52 1012.5
20260905181418 37 260 1.6 4.8 0.00 0.00 0.00 54 1012.4
20260905180919 37 231 1.6 4.8 0.00 0.00 0.00 54 1012.5
20260905180420 36 319 1.6 4.8 0.00 0.00 0.00 50 1012.5
20260905175919 36 271 1.6 6.4 0.00 0.00 0.00 53 1012.6
20260905175418 36 263 1.6 6.4 0.00 0.00 0.00 53 1012.6
20260905174918 36 257 1.6 4.8 0.00 0.00 0.00 54 1012.6
20260905174416 36 20 1.6 4.8 0.00 0.00 0.00 50 1012.8
20260905174148 36 272 1.6 4.8 0.00 0.00 0.00 51 1012.8
20260905173417 36 37 1.6 4.8 0.00 0.00 0.00 53 1012.9
20260905172914 36 324 1.6 3.2 0.00 0.00 0.00 57 1012.9
20260905172414 36 272 1.6 4.8 0.00 0.00 0.00 57 1012.9
20260905171915 36 70 1.6 4.8 0.00 0.00 0.00 56 1013.0
20260905171647 36 112 1.6 3.2 0.00 0.00 0.00 53 1013.0
20260905170914 36 36 1.6 3.2 0.00 0.00 0.00 52 1013.1
20260905170415 36 53 1.6 3.2 0.00 0.00 0.00 56 1013.2
20260905165914 36 268 1.6 4.8 0.00 0.00 0.00 56 1013.2
20260905165412 36 271 1.6 4.8 0.00 0.00 0.00 55 1013.3
20260905164912 36 309 1.6 3.2 0.00 0.00 0.00 56 1013.3
20260905164645 36 285 1.6 3.2 0.00 0.00 0.00 58 1013.4
20260905163913 35 268 1.6 4.8 0.00 0.00 0.00 55 1013.4
20260905163412 36 250 0.0 4.8 0.00 0.00 0.00 58 1013.5
20260905163143 35 193 0.0 3.2 0.00 0.00 0.00 55 1013.5
20260905162412 35 304 1.6 3.2 0.00 0.00 0.00 63 1013.6
20260905161913 35 307 1.6 3.2 0.00 0.00 0.00 61 1013.6
20260905161411 35 1 0.0 3.2 0.00 0.00 0.00 63 1013.6
20260905160910 35 2 1.6 4.8 0.00 0.00 0.00 62 1013.6
20260905160410 35 290 1.6 4.8 0.00 0.00 0.00 62 1013.7
20260905155910 35 260 0.0 3.2 0.00 0.00 0.00 61 1013.7
20260905155410 35 179 0.0 1.6 0.00 0.00 0.00 61 1013.7
20260905154911 35 148 0.0 3.2 0.00 0.00 0.00 62 1013.8
20260905154408 35 240 0.0 3.2 0.00 0.00 0.00 63 1013.8
20260905153908 35 192 0.0 4.8 0.00 0.00 0.00 63 1013.8
20260905153408 35 227 0.0 4.8 0.00 0.00 0.00 62 1013.8
20260905152909 35 255 0.0 3.2 0.00 0.00 0.00 65 1013.8
20260905152409 34 128 0.0 3.2 0.00 0.00 0.00 64 1013.8
20260905151908 34 278 0.0 3.2 0.00 0.00 0.00 64 1013.8
20260905151409 33 283 0.0 3.2 0.00 0.00 0.00 67 1013.8
20260905150908 33 280 0.0 3.2 0.00 0.00 0.00 66 1013.9
20260905150639 33 302 0.0 1.6 0.00 0.00 0.00 68 1013.9
20260905145909 33 302 0.0 1.6 0.00 0.00 0.00 72 1013.9
20260905145406 33 301 0.0 1.6 0.00 0.00 0.00 70 1013.9
20260905144907 33 300 0.0 1.6 0.00 0.00 0.00 70 1013.9
20260905144407 33 286 0.0 1.6 0.00 0.00 0.00 71 1013.8
20260905144138 32 286 0.0 1.6 0.00 0.00 0.00 71 1013.8
20260905143407 32 285 0.0 1.6 0.00 0.00 0.00 73 1013.8
20260905142906 32 286 0.0 1.6 0.00 0.00 0.00 73 1013.8
20260905142639 32 286 0.0 1.6 0.00 0.00 0.00 72 1013.8
20260905141907 32 105 0.0 1.6 0.00 0.00 0.00 73 1013.7
20260905141413 31 121 0.0 3.2 0.00 0.00 0.00 78 1013.7
20260905141408 32 121 0.0 0.0 0.00 0.00 0.00 77 1013.8
20260905140635 31 121 0.0 3.2 0.00 0.00 0.00 78 1013.8
20260905135904 30 124 0.0 3.2 0.00 0.00 0.00 82 1013.7
20260905135634 30 124 0.0 3.2 0.00 0.00 0.00 82 1013.8
20260905135135 29 288 0.0 0.0 0.00 0.00 0.00 88 1013.7
20260905134634 28 288 0.0 0.0 0.00 0.00 0.00 92 1013.8
20260905133904 28 288 0.0 0.0 0.00 0.00 0.00 95 1013.7
20260905133635 28 288 0.0 0.0 0.00 0.00 0.00 97 1013.6
20260905133135 27 288 0.0 0.0 0.00 0.00 0.00 99 1013.7
20260905132405 27 288 0.0 0.0 0.00 0.00 0.00 99 1013.7
20260905131902 26 288 0.0 0.0 0.00 0.00 0.00 99 1013.7
20260905131634 26 288 0.0 0.0 0.00 0.00 0.00 100 1013.7
20260905130902 25 288 0.0 0.0 0.00 0.00 0.00 100 1013.6
20260905130403 26 288 0.0 0.0 0.00 0.00 0.00 100 1013.6
20260905125901 26 288 0.0 0.0 0.00 0.00 0.00 100 1013.5
20260905125408 24 288 0.0 0.0 0.00 0.00 0.00 100 1013.5
20260905125401 25 288 0.0 0.0 0.00 0.00 0.00 100 1013.5
20260905124403 23 288 0.0 0.0 0.00 0.00 0.00 100 1013.5
20260905123902 23 288 0.0 0.0 0.00 0.00 0.00 100 1013.4
20260905123402 23 288 0.0 0.0 0.00 0.00 0.00 100 1013.4
20260905123133 22 288 0.0 0.0 0.00 0.00 0.00 100 1013.3
20260905122633 22 288 0.0 0.0 0.00 0.00 0.00 100 1013.2
20260905121902 22 288 0.0 0.0 0.00 0.00 0.00 100 1013.2
20260905121403 22 288 0.0 0.0 0.00 0.00 0.00 100 1013.2
20260905121135 22 288 0.0 0.0 0.00 0.00 0.00 100 1013.2
20260905120401 22 288 0.0 0.0 0.00 0.00 0.00 100 1013.2
20260905120136 22 288 0.0 0.0 0.00 0.00 0.00 100 1013.2
20260905115401 22 288 0.0 0.0 0.00 0.00 0.00 100 1013.2
20260905114902 22 288 0.0 0.0 0.00 0.00 0.00 100 1013.2
20260905114402 21 288 0.0 0.0 0.00 0.00 0.00 100 1013.1
20260905114136 21 288 0.0 0.0 0.00 0.00 0.00 100 1013.1